Content
SEND FEEDBACK

Daily
Averages
Monthly
Summary
Honduras

TEGUCIGALPA, HONDURAS


Home > Central America > Honduras
Elevation: 3260 feet     Latitude: 14 03N     Longitude: 087 13W

WEATHER
 
SELECT A DAY
Number of Records: 54,671;   Date Range: 7/9/96 - 8/26/14
 
SHARE

PRINT THIS DATA

[ ← Previous Day ]
WEATHER ALMANAC - JULY 23, 2013
[ Next Day → ]
[ °C ]   °F
Weather ElementAverageHighLow
Temperature69.6 °F77 °F (4:00 pm)65 °F (3:00 am)
Dewpoint63.9 °F68 °F (3:00 pm)60 °F (12:00 pm)
Humidity81.6 %95 % (3:00 am)49 % (12:00 pm)
Barometer30.06 in30.15 in (12:00 am)29.88 in (3:00 pm)
Wind Speed5.5 mph11.5 mph (12:00 pm)
Weather ElementAverage
Visibility5.5 mi
Wind DirectionSSE (160.7 °)

Weather ElementTotal
Precipitation---
Cooling Degree Days6 (Base 65)
Growing Degree Days21 (Base 50)
Averaged from 27 records on July 23, 2013
WEATHER CONDITIONS BREAKOUT
WIND DIRECTION BREAKOUT
WEATHER BY HOUR - JULY 23, 2013
[ °C ]   °F
Local TimeTemperatureDewpointHumidityBarometerVisibilityWind DirectionWind SpeedGust SpeedPrecipitationEventsConditions
12:00 AM66.2 °F64.4 °F94 %30.15 in5.0 miNNE (20°)3.5 mphMostly Cloudy
1:00 AM66.2 °F64.4 °F94 %30.12 in5.0 miVariable2.3 mphMostly Cloudy
2:00 AM66.2 °F64.4 °F94 %30.09 in5.0 miCalmMostly Cloudy
3:00 AM65.0 °F64.0 °F95 %29.94 in5.0 miWest (260°)3.5 mphHaze
3:00 AM66.2 °F60.8 °F83 %30.09 in5.0 miWest (260°)3.5 mphMostly Cloudy
4:00 AM66.2 °F64.4 °F94 %30.09 in5.0 miCalmMostly Cloudy
5:00 AM66.2 °F64.4 °F94 %30.09 in5.0 miNW (310°)4.6 mphScattered Clouds
6:00 AM66.0 °F64.0 °F90 %29.95 in5.0 miNorth (10°)9.2 mphHaze
6:00 AM66.2 °F64.4 °F94 %30.09 in5.0 miNorth (10°)9.2 mphMostly Cloudy
7:00 AM68.0 °F64.4 °F88 %30.12 in5.0 miWSW (250°)3.5 mphMostly Cloudy
8:00 AM69.8 °F66.2 °F88 %30.12 in5.0 miNNE (30°)5.8 mphMostly Cloudy
9:00 AM73.0 °F67.0 °F76 %29.99 in6.0 miNorth6.9 mphMostly Cloudy
9:00 AM73.4 °F66.2 °F78 %30.12 in5.0 miNorth (360°)6.9 mphMostly Cloudy
10:00 AM75.2 °F66.2 °F73 %30.12 in6.2 miNorth (360°)8.1 mphMostly Cloudy
11:00 AM75.2 °F64.4 °F69 %30.12 in6.2 miNNE (20°)6.9 mphScattered Clouds
12:00 PM76.0 °F60.0 °F49 %29.96 in6.0 miENE (70°)11.5 mphMostly Cloudy
2:00 PM73.4 °F62.6 °F69 %30.09 in6.2 miEast (80°)6.9 mphMostly Cloudy
3:00 PM74.0 °F68.0 °F76 %29.88 in6.0 miNNW (330°)4.6 mphRainLight Drizzle
3:00 PM75.2 °F68.0 °F78 %30.09 in6.2 miNNW (330°)4.6 mphMostly Cloudy
4:00 PM77.0 °F66.2 °F69 %30.06 in6.2 miSE (140°)3.5 mphMostly Cloudy
4:36 PM69.8 °F64.4 °F83 %30.09 in5.0 miNorth (10°)8.1 mphMostly Cloudy
5:00 PM69.8 °F62.6 °F78 %30.09 in5.0 miNorth (360°)6.9 mphMostly Cloudy
6:00 PM69.8 °F60.8 °F73 %30.06 in6.2 miESE (120°)3.5 mphMostly Cloudy
9:00 PM67.0 °F61.0 °F75 %29.95 in6.0 miNorth6.9 mphHaze
9:00 PM66.2 °F60.8 °F83 %30.09 in6.2 miNorth (360°)6.9 mphMostly Cloudy
10:00 PM66.2 °F60.8 °F83 %30.09 in6.2 miNNW (330°)5.8 mphMostly Cloudy
11:00 PM66.2 °F60.8 °F83 %30.09 in6.2 miNW (320°)4.6 mphMostly Cloudy
Hourly data recorded from MHTG, located miles away from Tegucigalpa, Honduras







STORIES FROM OUR PARTNERS